Regional Weather Roundup

ASCA42 TJSJ 181710

RWRPR

PUERTO RICO/U.S. VIRGIN ISLANDS HOURLY WEATHER ROUNDUP

NATIONAL WEATHER SERVICE SAN JUAN PR

100 PM AST WED OCT 18 2017

PRZ001>002-007>008-010-181800-

PUERTO RICO

CITY SKY/WX TMP DP RH WIND PRES REMARKS

SAN JUAN LMM MOSUNNY 88 79 74 E13 30.00F HX 102

PONCE SHOWER 77 72 83 E18G26 30.05R

AGUADILLA LGT RAIN 86 75 70 E10 29.99F HX 95

VIZ001>002-181800-

U.S. VIRGIN ISLANDS

CITY SKY/WX TMP DP RH WIND PRES REMARKS

CHARLOTTE AMA PTSUNNY 86 72 62 SE17G26 30.00F HAZE HX 92

CHRISTIANSTED PTSUNNY 90 77 66 SE13 30.01F HAZE HX 102

HOURLY WEATHER ROUNDUP FOR THE NEWS MEDIA

CITY SKY/WX TMP DP RH WIND PRES REMARKS

ORLANDO LGT RAIN 77 73 88 NE10 30.12F

NEW YORK MOSUNNY 68 44 42 SW9 30.31F

NEWARK MOSUNNY 71 43 36 CALM 30.31F

CHICAGO SUNNY 66 43 43 SW12 30.12F

HARTFORD SUNNY 68 46 45 W9 30.24F

BOSTON MOSUNNY 68 42 38 VRB7 30.24F

DALLAS MOSUNNY 74 46 36 S12 30.17S

PHILADELPHIA SUNNY 67 44 43 S8 30.34F

LOS ANGELES MOSUNNY 77 57 50 E7 29.95S

WASHINGTON DC MOSUNNY 67 42 40 S6 30.38F